Change the Weather History Date:

Monday, October 24, 2011

  Actual Average (PAKU) Record (PAKU)
Temperature  
Mean Temperature 16 °F -  
Max Temperature 17 °F 15 °F 33 °F (2007)
Min Temperature 14 °F 6 °F -26 °F (1983)
Degree Days  
Heating Degree Days 50    
Moisture  
Dew Point 10 °F    
Average Humidity 81    
Maximum Humidity 92    
Minimum Humidity 74    
Precipitation  
Precipitation 0.00 in - - ()
Sea Level Pressure  
Sea Level Pressure 29.88 in    
Wind  
Wind Speed 10 mph (ENE)    
Max Wind Speed 20 mph    
Max Gust Speed -    
Visibility 9 miles    
Events Snow    
Averages and records for this station are not official NWS values.
T = Trace of Precipitation, MM = Missing Value Source: NWS Daily Summary

Daily Weather History Graph

Daily Weather History Graph

Search for Another Location

Airport or City:

Trip Planner

Search our weather history database for the weather conditions in past years. The results will help you decide how hot, cold, wet, or windy it might be!

Date:

Astronomy

Oct. 24, 2011 Rise Set
Actual Time 9:58 AM AKDT 5:36 PM AKDT
Civil Twilight 8:49 AM AKDT 6:44 PM AKDT
Nautical Twilight 7:37 AM AKDT 7:57 PM AKDT
Astronomical Twilight 6:25 AM AKDT 9:08 PM AKDT
Moon 6:30 AM AKDT (10/24) 4:48 PM AKDT (10/24)
Length of Visible Light 9h 55m
Length of Day
7h 38m
Waning Crescent, 6% of the Moon is Illuminated
Oct 24
Waning Crescent
Oct 26
New
Nov 2
First Quarter
Nov 10
Full
Nov 18
Last Quarter

Hourly Weather History & Observations

Time (AKDT) Temp. Windchill Dew Point Humidity Pressure Visibility Wind Dir Wind Speed Gust Speed Precip Events Conditions
12:53 AM 16.0 °F 2.3 °F 10.0 °F 77% 29.99 in 9.0 mi ENE 12.7 mph - 0.00 in   Overcast
1:53 AM 16.0 °F 1.1 °F 10.0 °F 77% 29.98 in 10.0 mi ENE 15.0 mph - 0.00 in   Overcast
2:53 AM 15.1 °F 3.3 °F 10.0 °F 80% 29.97 in 10.0 mi ENE 9.2 mph - 0.00 in   Overcast
3:34 AM 15.8 °F 5.1 °F 10.4 °F 79% 29.95 in 10.0 mi ENE 8.1 mph - N/A   Overcast
3:53 AM 16.0 °F 3.6 °F 10.0 °F 77% 29.95 in 10.0 mi East 10.4 mph - N/A   Overcast
4:53 AM 15.1 °F 3.3 °F 10.0 °F 80% 29.94 in 10.0 mi East 9.2 mph - N/A   Overcast
5:53 AM 15.1 °F 6.4 °F 10.9 °F 84% 29.93 in 10.0 mi ENE 5.8 mph - N/A   Overcast
6:53 AM 15.1 °F 7.7 °F 9.0 °F 77% 29.92 in 10.0 mi ENE 4.6 mph - N/A   Overcast
7:53 AM 15.1 °F 7.7 °F 10.0 °F 80% 29.91 in 10.0 mi NE 4.6 mph - N/A   Overcast
8:53 AM 14.0 °F 5.1 °F 10.0 °F 84% 29.91 in 10.0 mi ENE 5.8 mph - N/A   Overcast
9:53 AM 15.1 °F 6.4 °F 10.0 °F 80% 29.90 in 10.0 mi NE 5.8 mph - N/A   Overcast
11:53 AM 15.1 °F 9.4 °F 10.0 °F 80% 29.89 in 10.0 mi ENE 3.5 mph - N/A   Overcast
12:53 PM 15.1 °F 5.2 °F 10.9 °F 84% 29.89 in 4.0 mi ENE 6.9 mph - 0.00 in Snow Light Snow
1:02 PM 14.0 °F 5.1 °F 10.4 °F 86% 29.88 in 6.0 mi ENE 5.8 mph - 0.00 in Snow Light Snow
1:18 PM 15.8 °F 7.2 °F 10.4 °F 79% 29.87 in 10.0 mi NE 5.8 mph - 0.00 in   Overcast
1:53 PM 16.0 °F 5.3 °F 12.0 °F 84% 29.88 in 10.0 mi ENE 8.1 mph - 0.00 in   Overcast
2:53 PM 16.0 °F 3.6 °F 9.0 °F 74% 29.87 in 10.0 mi ENE 10.4 mph - N/A   Overcast
3:53 PM 14.0 °F 1.2 °F 8.1 °F 77% 29.86 in 10.0 mi East 10.4 mph - N/A   Overcast
4:53 PM 14.0 °F -0.8 °F 8.1 °F 77% 29.84 in 10.0 mi ENE 13.8 mph - N/A   Overcast
5:42 PM 14.0 °F 1.2 °F 8.6 °F 79% 29.83 in 10.0 mi ENE 10.4 mph - 0.00 in Snow Light Snow
5:53 PM 14.0 °F 0.5 °F 10.0 °F 84% 29.83 in 9.0 mi ENE 11.5 mph - 0.00 in   Overcast
6:53 PM 14.0 °F 0.5 °F 10.0 °F 84% 29.82 in 10.0 mi NE 11.5 mph - N/A   Overcast
7:53 PM 16.0 °F 0.1 °F 12.0 °F 84% 29.81 in 10.0 mi ENE 17.3 mph - N/A   Overcast
8:53 PM 17.1 °F 0.6 °F 10.9 °F 77% 29.80 in 10.0 mi ENE 19.6 mph - N/A   Overcast
9:53 PM 17.1 °F 1.5 °F 10.9 °F 77% 29.79 in 10.0 mi ENE 17.3 mph - 0.00 in   Overcast
10:53 PM 17.1 °F 5.8 °F 12.9 °F 84% 29.78 in 5.0 mi East 9.2 mph - 0.00 in Snow Light Snow
11:53 PM 16.0 °F 5.3 °F 14.0 °F 92% 29.78 in 6.0 mi East 8.1 mph - 0.00 in Snow Light Snow